Home   Weather   Khanty-Mansiysk   Past weeks

Flag for Russia Past Weather in Khanty-Mansiysk, Russia — Yesterday and Last 2 Weeks

Now
48 °F

Partly sunny.


Feels Like: 47 °F
Forecast: 33 / 44 °F
Wind: 3 mph from Northeast

Location: Hanty-Mansijsk

Current Time: Sep 28, 2016 at 3:23:16 PM

Latest Report: Sep 28, 2016 at 3:00 PM


Visibility: N/A

Pressure: 30.15 "Hg

Humidity: 66%

Dew Point: 37 °F

Location of Khanty-MansiyskLocation

Past Weather in Khanty-Mansiysk — Graph

°F

Khanty-Mansiysk Temperature Yesterday

Maximum temperature yesterday: 55 °F (at 12:00 AM)
Minimum temperature yesterday: 45 °F (at 11:00 PM)
Average temperature yesterday: 51 °F

High & Low Weather Summary for the Past Weeks

 TemperatureHumidityPressure
High68 °F (Sep 17, 12:00 PM)100% (Sep 14, 2:30 AM)30.48 "Hg (Sep 14, 2:30 AM)
Low39 °F (Sep 28, 4:30 AM)53% (Sep 17, 12:30 PM)29.59 "Hg (Sep 17, 1:00 PM)
Average52 °F87%30.03 "Hg
* Reported Sep 13 2:00 PM — Sep 28 2:00 PM, Khanty-Mansiysk, Weather by CustomWeather, © 2016

Note: Actual official high and low records may vary slightly from our data, if they occured in-between our weather recording intervals... More about our weather records

Advertising

Khanty-Mansiysk Weather History for the Previous 24 Hours

Scroll right to see more
 ConditionsComfort  
Time TempWeatherWind HumidityBarometerVisibility
2:00 PM
Wed, Sep 28
48 °FPartly sunny.6 mph71%30.15 "HgN/A
1:30 PM48 °FPartly sunny.6 mph76%30.15 "HgN/A
1:00 PM48 °FScattered clouds.6 mph62%30.15 "HgN/A
12:30 PM48 °FScattered clouds.8 mph66%30.15 "HgN/A
12:00 PM48 °FScattered clouds.6 mph71%30.15 "HgN/A
11:30 AM48 °FScattered clouds.6 mph71%30.15 "HgN/A
11:00 AM48 °FPassing clouds.6 mph71%30.15 "HgN/A
10:30 AM46 °FPassing clouds.3 mph76%30.15 "HgN/A
10:00 AM45 °FPassing clouds.3 mph81%30.15 "HgN/A
9:30 AM43 °FSunny.3 mph81%30.15 "Hg10 mi
8:30 AM41 °FPassing clouds.3 mph87%30.15 "HgN/A
7:30 AM39 °FScattered clouds.1 mph93%30.15 "HgN/A
7:00 AM39 °FPassing clouds.1 mph93%30.15 "HgN/A
6:30 AM39 °FSunny.1 mph93%30.15 "Hg10 mi
6:00 AM39 °FPassing clouds.1 mph93%30.12 "HgN/A
5:30 AM39 °FPassing clouds.1 mph93%30.12 "HgN/A
5:00 AM41 °FPassing clouds.3 mph87%30.12 "HgN/A
4:30 AM39 °FPassing clouds.3 mph93%30.12 "HgN/A
4:00 AM41 °FPassing clouds.1 mph93%30.12 "HgN/A
3:30 AM43 °FPassing clouds.3 mph87%30.12 "HgN/A
3:00 AM43 °FPassing clouds.3 mph87%30.12 "HgN/A
2:30 AM41 °FClear.3 mph93%30.12 "Hg10 mi
2:00 AM41 °FClear.1 mph93%30.12 "Hg10 mi
1:30 AM41 °FClear.1 mph93%30.12 "Hg10 mi
1:00 AM43 °FClear.1 mph93%30.12 "Hg10 mi
12:30 AM43 °FClear.3 mph93%30.12 "Hg10 mi
12:00 AM45 °FClear.1 mph87%30.12 "Hg10 mi
11:30 PM
Tue, Sep 27
45 °FClear.1 mph87%30.12 "Hg10 mi
11:00 PM45 °FClear.1 mph93%30.09 "Hg10 mi
10:30 PM46 °FClear.1 mph87%30.09 "Hg10 mi
10:00 PM46 °FClear.1 mph87%30.09 "Hg10 mi
9:30 PM48 °FClear.1 mph87%30.09 "Hg10 mi
9:00 PM48 °FClear.1 mph82%30.09 "Hg10 mi
8:30 PM50 °FClear.3 mph76%30.09 "Hg10 mi
8:00 PM50 °FPassing clouds.3 mph82%30.09 "HgN/A
7:30 PM50 °FPassing clouds.3 mph82%30.09 "HgN/A
7:00 PM50 °FPassing clouds.3 mph82%30.07 "HgN/A
6:30 PM50 °FPassing clouds.3 mph88%30.07 "HgN/A
6:00 PM52 °FPartly sunny.3 mph82%30.07 "HgN/A
5:30 PM52 °FPartly sunny.3 mph88%30.04 "HgN/A
5:00 PM52 °FPartly sunny.3 mph88%30.04 "HgN/A
4:30 PM54 °FPartly sunny.3 mph82%30.04 "HgN/A
4:00 PM52 °FPartly sunny.3 mph94%30.04 "HgN/A
3:30 PM54 °FPartly sunny.6 mph88%30.04 "HgN/A
3:00 PM54 °FPartly sunny.3 mph88%30.04 "HgN/A
Weather by CustomWeather, © 2016

See weather overviewHow to use our weather pages